Regional Weather Roundup
Issued by NWS Charleston, SC

Home | Current Version | Previous Version | Text Only | Print | Product List | Glossary On
Versions: 1 2 3 4 5 6 7 8 9 10 11 12 13 14 15 16 17 18 19 20 21 22 23 24 25 26 27 28 29 30 31 32 33 34 35 36 37 38 39 40 41 42 43 44 45 46 47 48 49 50
738
ASUS42 KCHS 240927
RWRCHS

REGIONAL WEATHER ROUNDUP
NATIONAL WEATHER SERVICE CHARLESTON SC
400 AM EST TUE JAN 24 2017

NOTE: "FAIR" INDICATES FEW OR NO CLOUDS BELOW 12,000 FEET WITH NO
SIGNIFICANT WEATHER AND/OR OBSTRUCTIONS TO VISIBILITY.

NOT ALL STATIONS ARE QUALITY CONTROLLED. USE DATA WITH CAUTION...
ESPECIALLY DEWPOINT OBSERVATIONS.

SCZ027-030-031-034>040-042>050-241000-
...SOUTHEAST SOUTH CAROLINA...

CITY           SKY/WX    TMP DP  RH WIND       PRES   REMARKS
N CHARLESTON   CLEAR     52  46  80 W13       29.60R
WATERFRONT PRK   N/A     54  49  83 W8        29.58R
MOUNT PLEASANT FAIR      54  48  82 W9        29.59R
JOHNS ISLAND   FAIR      52  46  82 W13       29.61R
PINOPOLIS        N/A     54  50  87 W13       29.51R
MONCKS CORNER  FAIR      50  45  81 W5        29.59S
SUMMERVILLE    FAIR      52  48  87 W9        29.61S
BEAUFORT MCAS  CLEAR     53  44  71 W13       29.63S
BEAUFORT ARPT  FAIR      52  45  76 W14G23    29.63R
HILTON HEAD IS CLEAR     52  45  76 NW10G18   29.65R
WALTERBORO     SUNNY     50  45  81 W9        29.63R
ALLENDALE      FAIR      50  45  81 VRB3      29.63R

...SOUTHERN MIDLANDS AND PEE DEE...

CITY           SKY/WX    TMP DP  RH WIND       PRES   REMARKS
GEORGETOWN     FAIR      48  48 100 W5        29.58R
KINGSTREE      FAIR      45  43  93 CALM      29.59R
ORANGEBURG     CLEAR     51  44  77 W7        29.61R
BARNWELL       FAIR      50  45  81 W7        29.63S
AIKEN          FAIR      45  41  87 W10G16    29.66R
MANNING        FAIR      50  46  87 CALM      29.59R
COLUMBIA       PTCLDY    51  44  77 W9        29.59R
SUMTER         CLEAR     50  47  90 W6        29.56R
FLORENCE       CLEAR     46  43  89 W6        29.57R
MYRTLE BEACH   CLEAR     50  43  76 NW10      29.58R
N MYRTLE BEACH CLEAR     49  46  90 VRB5      29.54R

$$

GAZ063-065-086>088-099>101-113>116-118-119-134>141-150-241000-
...SOUTHEAST GEORGIA...

CITY           SKY/WX    TMP DP  RH WIND       PRES   REMARKS
SAVANNAH ARPT  PTCLDY    52  43  71 W10       29.66S
HUNTER AAF     CLEAR     51  47  86 W12       29.63S
FORT STEWART   PTCLDY    53  44  72 W9        29.65S
STATESBORO     PTCLDY    51  46  83 W9        29.67S
SYLVANIA       SUNNY    N/A N/A N/A NW8       29.67R
CLAXTON        FAIR     N/A N/A N/A W10       29.68S

...CSRA...CENTRAL AND FAR SOUTHEAST GEORGIA...

CITY           SKY/WX    TMP DP  RH WIND       PRES   REMARKS
THOMSON        CLEAR     49  45  84 NW9G16    29.71S
AUGUSTA-BUSH   CLEAR     51  42  71 NW10      29.64R
AUGUSTA-DANIEL CLEAR     50  40  68 W9G16     29.64R
SWAINSBORO     FAIR      50  45  81 MISG      29.70S
VIDALIA        PTCLDY    52  48  87 W12G17    29.71R
EASTMAN        FAIR      51  40  65 NW7       29.76R
HAZLEHURST     FAIR      52  49  89 NW3       29.72R
ALMA           CLEAR     54  47  77 NW12      29.72R
WAYCROSS       CLEAR     55  53  91 W8        29.74R
JESUP          FAIR      54  45  71 NW10      29.70R
BAXLEY         FAIR      54  52  94 NW10G17   29.72R
BRUNSWICK      CLEAR     54  50  87 W9        29.69S
SAINT SIMONS   CLEAR     56  46  69 W8        29.68S

$$

SCZ027-028-034-036>038-045-046-048>050-GAZ119-141-241000-
...LAKE AND SUPPLEMENTAL COASTAL OBSERVATIONS...

STATION/POSITION TIME  TEMP    WIND        PRES    WAVE   SWELL
                       AIR SEA DIR/SP/G            HT/PER HT/PER/DIR
                 (UTC) (F)     (DEG/KT/KT) (MB)    (FT/S) (FT/S/D)
WINYAH BAY       0845   51     290/  6     1001.0R
LAKE MURRAY      0830   52     270/ 12/ 15 1001.7R
ACE BASIN NERRS  0845   52     280/  3     1003.0S
FORT PULASKI     0900   54 59  300/ 16/ 20 1004.2
SAPELO ISLAND    0900   56     300/ 13     1004.0

$$

ANZ835-935-AMZ111-154-330-350-352-354-370-450-454-472-241000-
...C-MAN AND BUOY OBSERVATIONS...

STATION/POSITION TIME  TEMP    WIND        PRES    WAVE   SWELL
                       AIR SEA DIR/SP/G            HT/PER HT/PER/DIR
                 (UTC) (F)     (DEG/KT/KT) (MB)    (FT/S) (FT/S/D)
BUOY 41004       0850   60 68  290/ 21/ 27 1000.5R   7/ 7   3/190/ 8
BUOY 41008       0850   57 59  290/ 17/ 21 1003.9R   5/ 5   2/290/14
FOLLY BEACH CMAN 0900   53     270/  9/ 13 1002.7R
CAPERS NEARSHORE 0808   56 56  290/ 14/ 17 1000.7R
FRIPP NEARSHORE  0808   56 58  300/ 17/ 21 1002.5R


STATION/POSITION TIME  TEMP    WIND        PRES    WAVE   SWELL
                       AIR SEA DIR/SP/G            HT/PER HT/PER/DIR
                 (UTC) (F)     (DEG/KT/KT) (MB)    (FT/S) (FT/S/D)
5E ST. MARYS GA  0900      62                N/A     3/ 4   2/ 70/13
FRYING PAN BUOY  0910   57 69  280/ 23/ 29  999.0
BUOY 41025       0850   51 75  300/ 23/ 29  994.5   10/10  10/150/10
CAPE LOOKOUT NC  0900   48     310/ 20/ 25  996.6R
BUOY 41002       0850   67 71  300/ 23/ 29  996.0R  15/11  11/260/11
BUOY 41010       NOT AVBL
ST AUGUSTINE FL  0900   58 63  280/  8/ 12 1007.7R


$$




USA.gov is the U.S. government's official web portal to all federal, state and local government web resources and services.